TimeCST,TemperatureF,Dew PointF,Humidity,Sea Level PressureIn,VisibilityMPH,Wind Direction,Wind SpeedMPH,Gust SpeedMPH,PrecipitationIn,Events,Conditions,WindDirDegrees,DateUTC
12:53 AM,45.0,39.0,80,29.65,10.0,West,17.3,20.7,0.00,,Overcast,260,2013-11-09 06:53:00
1:53 AM,44.1,37.9,79,29.68,10.0,West,13.8,21.9,N/A,,Overcast,260,2013-11-09 07:53:00
2:26 AM,42.8,37.4,81,29.68,10.0,West,12.7,20.7,N/A,,Overcast,260,2013-11-09 08:26:00
2:41 AM,42.8,37.4,81,29.68,10.0,West,12.7,19.6,N/A,,Overcast,260,2013-11-09 08:41:00
2:53 AM,43.0,37.0,80,29.70,10.0,West,13.8,24.2,N/A,,Overcast,270,2013-11-09 08:53:00
3:02 AM,42.8,37.4,81,29.68,10.0,West,15.0,-,N/A,,Overcast,270,2013-11-09 09:02:00
3:53 AM,42.1,36.0,79,29.72,10.0,West,13.8,-,N/A,,Overcast,260,2013-11-09 09:53:00
4:53 AM,42.1,36.0,79,29.73,10.0,West,13.8,-,N/A,,Overcast,260,2013-11-09 10:53:00
5:53 AM,43.0,36.0,76,29.75,10.0,West,17.3,20.7,N/A,,Overcast,280,2013-11-09 11:53:00
6:08 AM,44.6,37.4,76,29.74,10.0,West,13.8,-,N/A,,Overcast,280,2013-11-09 12:08:00
6:53 AM,44.1,37.0,76,29.78,10.0,WNW,20.7,28.8,N/A,,Overcast,290,2013-11-09 12:53:00
7:53 AM,44.1,35.1,71,29.81,10.0,WNW,23.0,38.0,N/A,,Overcast,290,2013-11-09 13:53:00
8:00 AM,44.6,35.6,71,29.79,10.0,WNW,19.6,34.5,N/A,,Overcast,290,2013-11-09 14:00:00
8:53 AM,43.0,36.0,76,29.84,10.0,WNW,20.7,31.1,N/A,,Overcast,290,2013-11-09 14:53:00
9:53 AM,44.1,35.1,71,29.88,10.0,WNW,15.0,31.1,N/A,,Overcast,290,2013-11-09 15:53:00
10:53 AM,43.0,35.1,74,29.91,9.0,West,21.9,31.1,N/A,,Overcast,280,2013-11-09 16:53:00
11:38 AM,42.8,33.8,70,29.91,10.0,West,17.3,26.5,N/A,,Overcast,280,2013-11-09 17:38:00
11:53 AM,44.1,33.1,65,29.93,10.0,West,16.1,32.2,N/A,,Overcast,280,2013-11-09 17:53:00
12:53 PM,42.1,28.9,60,29.95,10.0,West,24.2,34.5,N/A,,Overcast,270,2013-11-09 18:53:00
1:53 PM,41.0,27.0,57,29.98,10.0,WNW,24.2,38.0,N/A,,Overcast,290,2013-11-09 19:53:00
2:53 PM,41.0,28.9,62,30.00,9.0,West,17.3,26.5,N/A,,Overcast,280,2013-11-09 20:53:00
3:53 PM,41.0,25.0,53,30.03,10.0,WNW,19.6,31.1,N/A,,Overcast,290,2013-11-09 21:53:00
4:53 PM,39.9,26.1,58,30.05,10.0,West,17.3,23.0,N/A,,Overcast,280,2013-11-09 22:53:00
5:53 PM,39.0,24.1,55,30.08,10.0,WNW,18.4,31.1,N/A,,Mostly Cloudy,290,2013-11-09 23:53:00
6:53 PM,39.0,25.0,57,30.12,10.0,West,17.3,26.5,N/A,,Overcast,280,2013-11-10 00:53:00
7:53 PM,37.0,25.0,62,30.13,10.0,WNW,16.1,28.8,N/A,,Mostly Cloudy,290,2013-11-10 01:53:00
8:53 PM,37.0,27.0,67,30.17,10.0,WNW,16.1,21.9,N/A,,Mostly Cloudy,290,2013-11-10 02:53:00
9:53 PM,37.0,27.0,67,30.18,10.0,West,16.1,23.0,N/A,,Mostly Cloudy,280,2013-11-10 03:53:00
10:53 PM,37.0,28.0,70,30.20,10.0,WNW,16.1,21.9,N/A,,Overcast,290,2013-11-10 04:53:00
11:53 PM,37.9,28.0,68,30.22,10.0,West,15.0,23.0,N/A,,Overcast,280,2013-11-10 05:53:00